Total_Precipitation_Accumulation
0.00 0.00 0.00 0.00 0.00 0.00 0.00 0.00 0.00 0.00 0.00 0.00 0.00 0.00 0.00 0.00 0.00 0.00 0.00 0.00 0.00 0.00 0.00 0.00 0.00 0.00 0.00 0.00 0.00 0.00 0.00 0.00 0.00 0.00 0.00 0.00 0.00 0.00 0.00 0.00 0.00 0.00 0.00
0.00 0.00 0.00 0.00 0.00 0.00 0.00 0.00 0.00 0.00 0.00 0.00 0.00 0.00 0.00 0.00 0.00 0.00 0.00 0.00 0.00 0.00 0.00 0.00 0.00 0.00 0.00 0.00 0.00 0.00 0.00 0.00 0.00 0.00 0.00 0.00 0.00 0.00 0.00 0.00 0.00 0.00 0.00
0.00 0.00 0.00 0.00 0.00 0.00 0.00 0.00 0.00 0.00 0.00 0.00 0.00 0.00 0.00 0.00 0.00 0.00 0.00 0.00 0.00 0.04 0.02 0.00 0.00 0.00 0.00 0.00 0.00 0.00 0.00 0.00 0.00 0.00 0.00 0.00 0.00 0.00 0.01 0.00 0.00 0.00 0.00
0.00 0.00 0.00 0.00 0.00 0.00 0.00 0.00 0.00 0.00 0.00 0.00 0.00 0.00 0.00 0.00 0.00 0.00 0.00 0.01 0.01 0.07 0.04 0.02 0.01 0.00 0.00 0.00 0.00 0.00 0.00 0.00 0.00 0.00 0.00 0.01 0.01 0.00 0.00 0.00 0.02 0.00 0.00
0.00 0.00 0.00 0.00 0.00 0.00 0.00 0.00 0.00 0.00 0.00 0.00 0.00 0.00 0.00 0.00 0.00 0.00 0.00 0.01 0.02 0.06 0.04 0.04 0.07 0.03 0.00 0.00 0.00 0.00 0.00 0.00 0.00 0.00 0.00 0.00 0.00 0.00 0.00 0.00 0.00 0.00 0.00
0.00 0.00 0.00 0.00 0.00 0.00 0.00 0.00 0.00 0.00 0.00 0.00 0.00 0.00 0.00 0.00 0.00 0.00 0.00 0.00 0.01 0.02 0.06 0.12 0.11 0.07 0.02 0.00 0.00 0.00 0.02 0.00 0.00 0.00 0.00 0.00 0.02 0.02 0.00 0.00 0.00 0.00 0.01
0.00 0.00 0.00 0.00 0.00 0.00 0.00 0.00 0.00 0.00 0.00 0.00 0.00 0.00 0.00 0.00 0.00 0.00 0.00 0.00 0.00 0.01 0.04 0.06 0.10 0.05 0.04 0.02 0.02 0.01 0.02 0.02 0.01 0.00 0.00 0.01 0.01 0.03 0.01 0.04 0.02 0.02 0.02
0.00 0.00 0.00 0.00 0.00 0.00 0.00 0.00 0.00 0.00 0.00 0.00 0.00 0.00 0.00 0.00 0.00 0.00 0.00 0.00 0.00 0.02 0.01 0.01 0.02 0.02 0.02 0.04 0.04 0.01 0.04 0.02 0.04 0.01 0.00 0.04 0.04 0.03 0.06 0.07 0.07 0.02 0.00
0.00 0.00 0.00 0.00 0.00 0.00 0.00 0.00 0.00 0.00 0.00 0.00 0.00 0.00 0.00 0.00 0.00 0.00 0.00 0.00 0.01 0.03 0.02 0.01 0.00 0.00 0.03 0.05 0.01 0.01 0.03 0.03 0.07 0.05 0.01 0.01 0.04 0.04 0.02 0.01 0.02 0.02 0.01
0.00 0.00 0.00 0.00 0.00 0.00 0.00 0.00 0.00 0.00 0.00 0.00 0.00 0.00 0.00 0.00 0.00 0.00 0.00 0.00 0.00 0.01 0.03 0.02 0.04 0.06 0.05 0.04 0.02 0.00 0.01 0.01 0.02 0.02 0.04 0.03 0.03 0.02 0.02 0.00 0.08 0.05 0.02
0.00 0.00 0.00 0.00 0.00 0.00 0.00 0.00 0.00 0.00 0.00 0.00 0.00 0.00 0.00 0.00 0.01 0.04 0.00 0.01 0.01 0.03 0.02 0.00 0.05 0.05 0.03 0.08 0.11 0.02 0.04 0.04 0.05 0.02 0.02 0.02 0.07 0.09 0.06 0.04 0.16 0.22 0.12
0.00 0.00 0.00 0.00 0.00 0.00 0.00 0.00 0.00 0.01 0.01 0.01 0.01 0.01 0.00 0.01 0.07 0.09 0.02 0.07 0.07 0.05 0.04 0.04 0.02 0.07 0.05 0.15 0.13 0.06 0.06 0.06 0.06 0.07 0.07 0.03 0.05 0.09 0.08 0.10 0.22 0.25 0.22
0.00 0.00 0.00 0.00 0.00 0.00 0.00 0.00 0.01 0.02 0.02 0.02 0.02 0.03 0.07 0.14 0.22 0.24 0.27 0.30 0.24 0.18 0.14 0.12 0.09 0.07 0.08 0.11 0.09 0.07 0.09 0.12 0.14 0.11 0.08 0.04 0.05 0.12 0.12 0.11 0.20 0.24 0.20
0.00 0.00 0.00 0.00 0.00 0.00 0.00 0.00 0.00 0.01 0.02 0.04 0.07 0.20 0.30 0.35 0.41 0.39 0.36 0.29 0.27 0.25 0.21 0.23 0.17 0.15 0.17 0.15 0.13 0.11 0.10 0.10 0.14 0.12 0.11 0.12 0.15 0.18 0.14 0.14 0.20 0.29 0.31
0.00 0.00 0.00 0.00 0.00 0.00 0.00 0.01 0.01 0.01 0.07 0.16 0.22 0.27 0.34 0.41 0.43 0.52 0.54 0.58 0.72 0.92 0.96 0.82 0.71 0.67 0.55 0.36 0.25 0.20 0.16 0.13 0.13 0.13 0.24 0.37 0.38 0.30 0.23 0.21 0.24 0.31 0.37
0.00 0.00 0.00 0.00 0.00 0.00 0.00 0.01 0.06 0.11 0.24 0.31 0.35 0.48 0.67 0.85 1.16 1.31 1.52 1.33 0.97 0.80 0.77 0.62 0.48 0.38 0.34 0.34 0.31 0.25 0.22 0.25 0.23 0.37 0.53 0.54 0.51 0.43 0.36 0.32 0.32 0.31 0.30
0.00 0.00 0.00 0.00 0.00 0.00 0.01 0.02 0.06 0.26 0.29 0.37 0.51 0.49 0.56 0.49 0.51 0.52 0.60 0.66 0.51 0.45 0.34 0.32 0.28 0.31 0.40 0.47 0.51 0.52 0.46 0.47 0.58 0.66 0.69 0.74 0.78 0.76 0.76 0.67 0.68 0.70 0.68
0.00 0.03 0.08 0.06 0.04 0.08 0.11 0.18 0.20 0.23 0.24 0.34 0.57 0.52 0.43 0.43 0.42 0.35 0.37 0.41 0.36 0.24 0.22 0.20 0.20 0.23 0.27 0.34 0.38 0.35 0.35 0.43 0.58 0.70 0.83 0.90 0.95 0.91 0.87 0.83 0.79 0.87 0.93
0.05 0.04 0.17 0.43 0.72 0.64 0.64 0.69 0.62 0.48 0.31 0.31 0.34 0.42 0.43 0.44 0.42 0.37 0.43 0.38 0.41 0.35 0.31 0.33 0.31 0.29 0.26 0.28 0.31 0.36 0.38 0.33 0.37 0.44 0.56 0.65 0.66 0.64 0.70 0.74 0.97 1.39 1.88
0.19 0.52 0.68 1.03 2.11 2.44 2.27 1.97 1.86 1.78 1.46 1.26 1.06 1.08 1.08 1.04 1.00 0.88 0.85 0.92 0.97 0.78 0.70 0.82 0.81 0.71 0.64 0.67 0.65 0.62 0.67 0.80 0.93 1.13 1.37 1.88 2.58 2.94 3.02 2.90 2.91 2.94 2.87
0.09 0.30 0.36 0.51 0.76 0.85 1.28 1.55 1.73 1.94 1.95 2.02 2.04 1.95 1.96 2.17 2.00 2.00 2.22 2.10 1.76 1.73 1.68 1.74 1.89 1.98 2.04 2.09 2.12 2.10 2.15 2.34 2.71 2.99 3.12 2.94 2.49 1.92 1.46 1.28 1.27 1.24 1.11
0.21 0.28 0.28 0.29 0.25 0.23 0.22 0.27 0.29 0.41 0.49 0.58 0.73 0.77 0.74 0.68 0.79 0.93 1.20 1.28 1.29 1.19 1.13 1.08 0.88 0.79 0.89 1.02 1.10 1.10 1.09 1.13 1.06 0.92 0.87 0.87 0.85 0.76 0.64 0.65 0.57 0.47 0.40
0.01 0.07 0.09 0.12 0.14 0.17 0.16 0.16 0.16 0.14 0.14 0.13 0.12 0.17 0.27 0.26 0.24 0.18 0.18 0.18 0.21 0.23 0.28 0.33 0.30 0.26 0.24 0.22 0.17 0.17 0.19 0.14 0.13 0.15 0.15 0.18 0.21 0.18 0.14 0.18 0.12 0.06 0.05
0.01 0.00 0.00 0.01 0.04 0.08 0.07 0.05 0.06 0.07 0.07 0.09 0.10 0.11 0.16 0.18 0.21 0.17 0.14 0.13 0.14 0.15 0.16 0.21 0.20 0.20 0.15 0.11 0.09 0.08 0.06 0.06 0.07 0.07 0.04 0.02 0.05 0.09 0.04 0.03 0.00 0.00 0.00
0.00 0.00 0.00 0.01 0.02 0.06 0.08 0.06 0.06 0.04 0.04 0.06 0.08 0.10 0.12 0.08 0.06 0.08 0.08 0.07 0.04 0.03 0.05 0.07 0.06 0.05 0.07 0.05 0.05 0.03 0.04 0.03 0.03 0.01 0.00 0.00 0.00 0.00 0.00 0.00 0.00 0.00 0.00
0.04 0.03 0.02 0.02 0.02 0.01 0.02 0.05 0.12 0.19 0.21 0.19 0.11 0.08 0.11 0.12 0.07 0.03 0.03 0.02 0.01 0.01 0.00 0.00 0.00 0.01 0.04 0.03 0.03 0.02 0.01 0.01 0.00 0.00 0.00 0.00 0.00 0.00 0.00 0.00 0.00 0.00 0.00